weather.gov     
National Weather Service

Terminal Aerodrome Forecast
NWS Homepage
This page is being discontinued on March 12, 2014.
The same data is available at this site. Please update your bookmarks.
Thank you, and we apologize for the inconvenience.
Please send an email to SR-SRH.Webmaster@noaa.gov with any concerns.


Current Version
Previous Version:    01  02  03  04  05  06  07  08  09  10  11  12  13  14  
[Printable]
315
FTUS41 KBOX 240832 AAA
TAFMHT
TAF AMD
KMHT 240832Z 2409/2506 34008KT 6SM -SHRA BR SCT015 OVC025
     FM241500 33007KT P6SM OVC025
     FM242100 32007KT P6SM OVC050=




315
FTUS41 KBOX 240832 AAA
TAFMHT
TAF AMD
KMHT 240832Z 2409/2506 34008KT 6SM -SHRA BR SCT015 OVC025
     FM241500 33007KT P6SM OVC025
     FM242100 32007KT P6SM OVC050=


U.S. Dept. of Commerce
NOAA National Weather Service
1325 East West Highway
Silver Spring, MD 20910
E-mail: w-nws.webmaster@noaa.gov
Page last modified: May 16, 2007
NATIONAL WEATHER SERVICE: for Safety, for Work, for Fun - FOR LIFE